Waukesha, WI

10:35 AM CDT on September 23, 2017 (GMT -0500)
Waukesha County

Weather History for KUES - December, 2013

Change the Weather History Date:

Tuesday, December 3, 2013

  Actual Average Record
Temperature  
Mean Temperature 34 °F -  
Max Temperature 37 °F 35 °F 64 °F (1998)
Min Temperature 32 °F 20 °F -1 °F (1985)
Degree Days  
Heating Degree Days 30    
Moisture  
Dew Point 35 °F    
Average Humidity 100    
Maximum Humidity 100    
Minimum Humidity 93    
Precipitation  
Precipitation 0.01 in - - ()
Sea Level Pressure  
Sea Level Pressure 29.73 in    
Wind  
Wind Speed 9 mph (East)    
Max Wind Speed 13 mph    
Max Gust Speed 17 mph    
Visibility 2 miles    
Events Fog , Rain , Snow    
Averages and records for this station are not official NWS values.
T = Trace of Precipitation, MM = Missing Value Source: NWS Daily Summary

Daily Weather History Graph

Daily Weather History Graph

Search for Another Location

Airport or City:

Trip Planner

Search our weather history database for the weather conditions in past years. The results will help you decide how hot, cold, wet, or windy it might be!

Date:

Astronomy

Dec. 03, 2013 Rise Set
Actual Time 7:06 AM CST 4:18 PM CST
Civil Twilight 6:35 AM CST 4:50 PM CST
Nautical Twilight 5:59 AM CST 5:26 PM CST
Astronomical Twilight 5:25 AM CST 6:00 PM CST
Moon 7:35 AM CST (12/3) 5:22 PM CST (12/3)
Length of Visible Light 10h 15m
Length of Day
9h 11m
New Moon, 1% of the Moon is Illuminated
Dec 3
New Moon
Dec 9
First Quarter
Dec 17
Full
Dec 25
Last Quarter
Jan 1
New

Hourly Weather History & Observations

Time (CST) Temp. Windchill Dew Point Humidity Pressure Visibility Wind Dir Wind Speed Gust Speed Precip Events Conditions
12:15 AM 32.0 °F 23.6 °F 32.0 °F 100% 29.77 in 3.0 mi East 10.4 mph - N/A   Drizzle
12:35 AM 32.0 °F 23.0 °F 32.0 °F 100% 29.76 in 3.0 mi East 11.5 mph - N/A Snow Light Snow
12:55 AM 32.0 °F 24.2 °F 32.0 °F 100% 29.76 in 2.5 mi East 9.2 mph 17.3 mph 0.01 in Rain Light Rain
1:15 AM 32.0 °F 22.5 °F 32.0 °F 100% 29.75 in 3.0 mi East 12.7 mph 16.1 mph N/A   Overcast
1:35 AM 32.0 °F 23.6 °F 32.0 °F 100% 29.75 in 4.0 mi East 10.4 mph - N/A   Overcast
1:55 AM 32.0 °F 23.6 °F 32.0 °F 100% 29.75 in 3.0 mi East 10.4 mph - N/A Rain Light Rain
2:15 AM 32.0 °F 23.6 °F 32.0 °F 100% 29.74 in 2.5 mi East 10.4 mph - N/A Rain Light Rain
2:35 AM 32.0 °F 23.0 °F 32.0 °F 100% 29.74 in 4.0 mi ESE 11.5 mph - N/A Rain Light Rain
2:55 AM 32.0 °F 22.5 °F 32.0 °F 100% 29.75 in 4.0 mi East 12.7 mph - N/A   Overcast
3:15 AM 32.0 °F 23.6 °F 32.0 °F 100% 29.74 in 3.0 mi ESE 10.4 mph 16.1 mph N/A Rain Light Rain
3:35 AM 32.0 °F 23.6 °F 32.0 °F 100% 29.73 in 2.5 mi ESE 10.4 mph - N/A Rain Light Rain
3:55 AM 33.8 °F 26.4 °F 32.0 °F 93% 29.73 in 3.0 mi ESE 9.2 mph - N/A   Light Drizzle
4:15 AM 33.8 °F 27.0 °F 32.0 °F 93% 29.73 in 3.0 mi East 8.1 mph - N/A   Light Drizzle
4:35 AM 33.8 °F 27.0 °F 33.8 °F 100% 29.73 in 2.5 mi East 8.1 mph - N/A   Light Drizzle
5:45 AM 33.8 °F 27.7 °F 33.8 °F 100% 29.73 in 1.0 mi East 6.9 mph - N/A   Drizzle
6:45 AM 35.6 °F 29.9 °F 35.6 °F 100% 29.73 in 1.0 mi East 6.9 mph - N/A   Overcast
7:45 AM 35.6 °F 29.9 °F 35.6 °F 100% 29.73 in 0.5 mi East 6.9 mph - N/A   Overcast
8:45 AM 35.6 °F 29.9 °F 35.6 °F 100% 29.73 in 0.5 mi East 6.9 mph - N/A   Overcast
8:55 AM 35.6 °F 29.9 °F 35.6 °F 100% 29.73 in 0.2 mi East 6.9 mph - N/A   Overcast
9:45 AM 35.6 °F 29.9 °F 35.6 °F 100% 29.74 in 0.2 mi East 6.9 mph - N/A Fog Fog
10:45 AM 37.4 °F 31.4 °F 37.4 °F 100% 29.73 in 0.2 mi East 8.1 mph - N/A Fog Fog
11:45 AM 37.4 °F 32.1 °F 37.4 °F 100% 29.72 in 0.2 mi East 6.9 mph - N/A Fog Fog
12:45 PM 37.4 °F 32.1 °F 37.4 °F 100% 29.71 in 0.2 mi East 6.9 mph - N/A Fog Fog
1:45 PM 37.4 °F 30.8 °F 37.4 °F 100% 29.71 in 0.2 mi East 9.2 mph - N/A Fog Fog
2:45 PM 37.4 °F 31.4 °F 37.4 °F 100% 29.70 in 0.5 mi East 8.1 mph - N/A Fog Fog
3:45 PM 37.4 °F 30.8 °F 37.4 °F 100% 29.70 in 0.2 mi East 9.2 mph - N/A Fog Fog
4:45 PM 37.4 °F 30.8 °F 37.4 °F 100% 29.70 in 0.2 mi East 9.2 mph - N/A   Light Drizzle
5:30 PM 37.4 °F 30.8 °F 37.4 °F 100% 29.68 in 2.0 mi East 9.2 mph - N/A Rain Light Rain
5:45 PM 37.4 °F 30.8 °F 37.4 °F 100% 29.70 in 3.0 mi East 9.2 mph - N/A Rain Light Rain
6:45 PM 37.4 °F 32.1 °F 37.4 °F 100% 29.72 in 0.8 mi ENE 6.9 mph - N/A   Overcast
7:45 PM 37.4 °F 33.8 °F 37.4 °F 100% 29.75 in 0.5 mi NE 4.6 mph - N/A   Overcast
8:15 PM 35.6 °F 29.2 °F 35.6 °F 100% 29.75 in 0.5 mi NE 8.1 mph - N/A Fog Fog
8:35 PM 35.6 °F 29.2 °F 35.6 °F 100% 29.75 in 0.8 mi NE 8.1 mph - N/A Rain Light Rain
8:45 PM 37.4 °F 31.4 °F 37.4 °F 100% 29.74 in 0.8 mi NE 8.1 mph - N/A Rain Light Rain
8:55 PM 35.6 °F 29.9 °F 35.6 °F 100% 29.74 in 0.8 mi ENE 6.9 mph - N/A Rain Light Rain
9:15 PM 35.6 °F 30.7 °F 35.6 °F 100% 29.75 in 1.0 mi ENE 5.8 mph - N/A   Overcast
9:35 PM 35.6 °F 32.8 °F 35.6 °F 100% 29.74 in 1.0 mi East 3.5 mph - N/A   Overcast
9:55 PM 35.6 °F 31.7 °F 35.6 °F 100% 29.74 in 1.2 mi NE 4.6 mph - N/A   Overcast
10:15 PM 35.6 °F 30.7 °F 35.6 °F 100% 29.74 in 1.2 mi NE 5.8 mph - N/A   Overcast
10:35 PM 35.6 °F 31.7 °F 35.6 °F 100% 29.74 in 0.8 mi NE 4.6 mph - N/A   Overcast
10:55 PM 35.6 °F 30.7 °F 35.6 °F 100% 29.74 in 0.8 mi NE 5.8 mph - N/A   Overcast
11:15 PM 35.6 °F 29.9 °F 35.6 °F 100% 29.73 in 0.8 mi NE 6.9 mph - N/A   Overcast
11:35 PM 35.6 °F 32.8 °F 35.6 °F 100% 29.74 in 0.5 mi NNE 3.5 mph - N/A Fog Fog
11:55 PM 35.6 °F 30.7 °F 35.6 °F 100% 29.74 in 0.8 mi NNE 5.8 mph - N/A   Overcast